Darstellungsparameter: Aktuell verwendete Einstellungen:
Skalierung der Graphiken ... ?
xyx+y,   Skalierungsfaktor:      Skalierung: Modus: x, Faktor: 1
Darstellungszeitraum ... ?
Vom - - bis: - -   Zeitraum: 29.08.2021 - 29.08.2021
Min/Max/Avg-Anzeige ... ?
Zeige MMA aktuell
Zeige MMA Monat
Zeige MMA alles
Zeige --A aktuell
Zeige --A Monat
Zeige --A alles
Keine MMA-Anzeige
MMA:
Average (ber die Originaldaten)
MMA-Basis: 29.08.2021 - 29.08.2021
Quicknavigation für Darstellung... ?
Tage:      1T, 2T, 3T, 5T -1T -2T -3T -5T +1T +2T +3T +5T
Wochen: 1W, 2W, 3W -1W -2W -3W +1W +2W +3W
Monate: 1M, 3M, 6M -1M -3M -6M +1M +3M +6M
Jahre:    1J, 3J, 5J, 10J -1J -3J -5J -10J +1J +3J +5J +10J
Nutze für die Darstellung ... ?
Originaldaten oder Mittelwerte auf ...
Stundenbasis Tagesbasis Wochenbasis
Monatsbasis Jahresbasis      Datenbasis: Original-Daten
Darstellen als:
Statistik (Auto) Statistik J:M      Darstellung:
Zur Graphik,    zurück zur Übersicht aller Sensoren.
 
Tabellarische Datenbersicht: ?
 
Sensor: Nr:Datum:Temp:Abs-Feuchte:Windchill:Wind:
Aussen-T/F 1 29-08-2021 00:00:00 15.3 C 12.41 g/m*3 15.3 C 3.2 km/h
2 29-08-2021 00:05:00 15.3 C 12.41 g/m*3 15.3 C 3.2 km/h
3 29-08-2021 00:10:00 15.3 C 12.41 g/m*3 15.3 C 1.6 km/h
4 29-08-2021 00:15:00 15.3 C 12.41 g/m*3 15.3 C 4.8 km/h
5 29-08-2021 00:20:00 15.3 C 12.41 g/m*3 15.3 C 12.9 km/h
6 29-08-2021 00:25:00 15.3 C 12.41 g/m*3 15.3 C 4.8 km/h
7 29-08-2021 00:30:00 15.2 C 12.33 g/m*3 15.2 C 4.8 km/h
8 29-08-2021 00:35:00 15.2 C 12.33 g/m*3 15.2 C 0 km/h
9 29-08-2021 00:40:00 15.2 C 12.33 g/m*3 15.2 C 1.6 km/h
10 29-08-2021 00:45:00 15.2 C 12.33 g/m*3 15.2 C 1.6 km/h
11 29-08-2021 00:50:00 15.2 C 12.33 g/m*3 15.2 C 1.6 km/h
12 29-08-2021 00:55:00 15.2 C 12.33 g/m*3 15.2 C 6.4 km/h
13 29-08-2021 01:00:00 15.2 C 12.33 g/m*3 15.2 C 1.6 km/h
14 29-08-2021 01:05:00 15.2 C 12.33 g/m*3 15.2 C 0 km/h
15 29-08-2021 01:10:00 15.2 C 12.33 g/m*3 15.2 C 0 km/h
16 29-08-2021 01:15:00 15.1 C 12.26 g/m*3 15.1 C 0 km/h
17 29-08-2021 01:20:00 15.1 C 12.26 g/m*3 15.1 C 0 km/h
18 29-08-2021 01:25:00 15.1 C 12.26 g/m*3 15.1 C 1.6 km/h
19 29-08-2021 01:30:00 15.1 C 12.26 g/m*3 15.1 C 0 km/h
20 29-08-2021 01:35:00 15.1 C 12.26 g/m*3 15.1 C 1.6 km/h
21 29-08-2021 01:40:00 15 C 12.18 g/m*3 15 C 1.6 km/h
22 29-08-2021 01:45:00 15 C 12.18 g/m*3 15 C 3.2 km/h
23 29-08-2021 01:50:00 14.9 C 12.11 g/m*3 14.9 C 1.6 km/h
24 29-08-2021 01:55:00 14.9 C 12.11 g/m*3 14.9 C 4.8 km/h
25 29-08-2021 02:00:00 14.9 C 12.11 g/m*3 14.9 C 0 km/h
Sensor: Nr:Datum:Temp:Abs-Feuchte:Windchill:Wind:
Aussen-T/F 26 29-08-2021 02:05:00 14.9 C 12.11 g/m*3 14.9 C 4.8 km/h
27 29-08-2021 02:10:00 14.9 C 12.11 g/m*3 14.9 C 0 km/h
28 29-08-2021 02:15:00 14.9 C 12.11 g/m*3 14.9 C 0 km/h
29 29-08-2021 02:20:00 14.9 C 12.11 g/m*3 14.9 C 0 km/h
30 29-08-2021 02:25:00 14.8 C 12.03 g/m*3 14.8 C 3.2 km/h
31 29-08-2021 02:30:00 14.8 C 12.03 g/m*3 14.8 C 3.2 km/h
32 29-08-2021 02:35:00 14.8 C 12.03 g/m*3 14.8 C 1.6 km/h
33 29-08-2021 02:40:00 14.8 C 12.03 g/m*3 14.8 C 6.4 km/h
34 29-08-2021 02:45:00 14.8 C 12.03 g/m*3 14.8 C 4.8 km/h
35 29-08-2021 02:50:00 14.8 C 12.03 g/m*3 14.8 C 3.2 km/h
36 29-08-2021 02:55:00 14.8 C 12.03 g/m*3 14.8 C 1.6 km/h
37 29-08-2021 03:00:00 14.8 C 12.03 g/m*3 14.8 C 4.8 km/h
38 29-08-2021 03:05:00 14.8 C 12.03 g/m*3 14.8 C 3.2 km/h
39 29-08-2021 03:10:00 14.8 C 12.03 g/m*3 14.8 C 3.2 km/h
40 29-08-2021 03:15:00 14.7 C 11.96 g/m*3 14.7 C 6.4 km/h
41 29-08-2021 03:20:00 14.7 C 11.96 g/m*3 14.7 C 6.4 km/h
42 29-08-2021 03:25:00 14.7 C 11.96 g/m*3 14.7 C 4.8 km/h
43 29-08-2021 03:30:00 14.7 C 11.96 g/m*3 14.7 C 6.4 km/h
44 29-08-2021 03:35:00 14.7 C 11.96 g/m*3 14.7 C 3.2 km/h
45 29-08-2021 03:40:00 14.7 C 11.96 g/m*3 14.7 C 6.4 km/h
46 29-08-2021 03:45:00 14.6 C 11.89 g/m*3 14.6 C 4.8 km/h
47 29-08-2021 03:50:00 14.6 C 11.89 g/m*3 14.6 C 6.4 km/h
48 29-08-2021 03:55:00 14.6 C 11.89 g/m*3 14.6 C 4.8 km/h
49 29-08-2021 04:00:00 14.6 C 11.89 g/m*3 14.6 C 6.4 km/h
50 29-08-2021 04:05:00 14.6 C 11.89 g/m*3 14.6 C 8.1 km/h
Sensor: Nr:Datum:Temp:Abs-Feuchte:Windchill:Wind:
Aussen-T/F 51 29-08-2021 04:10:00 14.6 C 11.89 g/m*3 14.6 C 4.8 km/h
52 29-08-2021 04:15:00 14.6 C 11.76 g/m*3 14.6 C 8.1 km/h
53 29-08-2021 04:20:00 14.6 C 11.76 g/m*3 14.6 C 9.7 km/h
54 29-08-2021 04:25:00 14.6 C 11.76 g/m*3 14.6 C 6.4 km/h
55 29-08-2021 04:30:00 14.5 C 11.69 g/m*3 14.5 C 8.1 km/h
56 29-08-2021 04:35:00 14.5 C 11.69 g/m*3 14.5 C 1.6 km/h
57 29-08-2021 04:40:00 14.6 C 11.76 g/m*3 14.6 C 3.2 km/h
58 29-08-2021 04:45:00 14.5 C 11.69 g/m*3 14.5 C 4.8 km/h
59 29-08-2021 04:50:00 14.5 C 11.69 g/m*3 14.5 C 6.4 km/h
60 29-08-2021 04:55:00 14.6 C 11.76 g/m*3 14.6 C 1.6 km/h
61 29-08-2021 05:00:00 14.6 C 11.76 g/m*3 14.6 C 8.1 km/h
62 29-08-2021 05:05:00 14.6 C 11.76 g/m*3 14.6 C 1.6 km/h
63 29-08-2021 05:10:00 14.6 C 11.76 g/m*3 14.6 C 6.4 km/h
64 29-08-2021 05:15:00 14.6 C 11.76 g/m*3 14.6 C 1.6 km/h
65 29-08-2021 05:20:00 14.5 C 11.69 g/m*3 14.5 C 8.1 km/h
66 29-08-2021 05:25:00 14.5 C 11.69 g/m*3 14.5 C 8.1 km/h
67 29-08-2021 05:30:00 14.5 C 11.69 g/m*3 14.5 C 1.6 km/h
68 29-08-2021 05:35:00 14.5 C 11.69 g/m*3 14.5 C 1.6 km/h
69 29-08-2021 05:40:00 14.6 C 11.76 g/m*3 14.6 C 0 km/h
70 29-08-2021 05:45:00 14.5 C 11.69 g/m*3 14.5 C 0 km/h
71 29-08-2021 05:50:00 14.6 C 11.76 g/m*3 14.6 C 1.6 km/h
72 29-08-2021 05:55:00 14.6 C 11.76 g/m*3 14.6 C 4.8 km/h
73 29-08-2021 06:00:00 14.5 C 11.69 g/m*3 14.5 C 1.6 km/h
74 29-08-2021 06:05:00 14.5 C 11.69 g/m*3 14.5 C 1.6 km/h
75 29-08-2021 06:10:00 14.5 C 11.69 g/m*3 14.5 C 1.6 km/h
Sensor: Nr:Datum:Temp:Abs-Feuchte:Windchill:Wind:
Aussen-T/F 76 29-08-2021 06:15:00 14.6 C 11.76 g/m*3 14.6 C 3.2 km/h
77 29-08-2021 06:20:00 14.5 C 11.69 g/m*3 14.5 C 4.8 km/h
78 29-08-2021 06:25:00 14.5 C 11.69 g/m*3 14.5 C 4.8 km/h
79 29-08-2021 06:30:00 14.5 C 11.69 g/m*3 14.5 C 1.6 km/h
80 29-08-2021 06:35:00 14.4 C 11.62 g/m*3 14.4 C 4.8 km/h
81 29-08-2021 06:40:00 14.4 C 11.62 g/m*3 14.4 C 4.8 km/h
82 29-08-2021 06:45:00 14.4 C 11.62 g/m*3 14.4 C 3.2 km/h
83 29-08-2021 06:50:00 14.4 C 11.62 g/m*3 14.4 C 4.8 km/h
84 29-08-2021 06:55:00 14.4 C 11.62 g/m*3 14.4 C 8.1 km/h
85 29-08-2021 07:00:00 14.3 C 11.55 g/m*3 14.3 C 3.2 km/h
86 29-08-2021 07:05:00 14.3 C 11.67 g/m*3 14.3 C 6.4 km/h
87 29-08-2021 07:10:00 14.3 C 11.67 g/m*3 14.3 C 1.6 km/h
88 29-08-2021 07:15:00 14.3 C 11.67 g/m*3 14.3 C 8.1 km/h
89 29-08-2021 07:20:00 14.3 C 11.67 g/m*3 14.3 C 6.4 km/h
90 29-08-2021 07:25:00 14.3 C 11.67 g/m*3 14.3 C 4.8 km/h
91 29-08-2021 07:30:00 14.3 C 11.67 g/m*3 14.3 C 3.2 km/h
92 29-08-2021 07:35:00 14.3 C 11.67 g/m*3 14.3 C 4.8 km/h
93 29-08-2021 07:40:00 14.3 C 11.55 g/m*3 14.3 C 6.4 km/h
94 29-08-2021 07:45:00 14.3 C 11.55 g/m*3 14.3 C 8.1 km/h
95 29-08-2021 07:50:00 14.3 C 11.55 g/m*3 14.3 C 4.8 km/h
96 29-08-2021 07:55:00 14.3 C 11.55 g/m*3 14.3 C 3.2 km/h
97 29-08-2021 08:00:00 14.3 C 11.55 g/m*3 14.3 C 14.5 km/h
98 29-08-2021 08:05:00 14.3 C 11.55 g/m*3 14.3 C 3.2 km/h
99 29-08-2021 08:10:00 14.4 C 11.62 g/m*3 14.4 C 4.8 km/h
100 29-08-2021 08:15:00 14.4 C 11.62 g/m*3 14.4 C 9.7 km/h
Sensor: Nr:Datum:Temp:Abs-Feuchte:Windchill:Wind:
Aussen-T/F 101 29-08-2021 08:20:00 14.4 C 11.62 g/m*3 14.4 C 8.1 km/h
102 29-08-2021 08:25:00 14.4 C 11.62 g/m*3 14.4 C 4.8 km/h
103 29-08-2021 08:30:00 14.4 C 11.62 g/m*3 14.4 C 4.8 km/h
104 29-08-2021 08:35:00 14.4 C 11.62 g/m*3 14.4 C 4.8 km/h
105 29-08-2021 08:40:00 14.4 C 11.62 g/m*3 14.4 C 6.4 km/h
106 29-08-2021 08:45:00 14.4 C 11.62 g/m*3 14.4 C 3.2 km/h
107 29-08-2021 08:50:00 14.4 C 11.62 g/m*3 14.4 C 4.8 km/h
108 29-08-2021 08:55:00 14.4 C 11.62 g/m*3 14.4 C 8.1 km/h
109 29-08-2021 09:00:00 14.5 C 11.69 g/m*3 14.5 C 6.4 km/h
110 29-08-2021 09:05:00 14.5 C 11.69 g/m*3 14.5 C 8.1 km/h
111 29-08-2021 09:10:00 14.5 C 11.69 g/m*3 14.5 C 6.4 km/h
112 29-08-2021 09:15:00 14.5 C 11.69 g/m*3 14.5 C 4.8 km/h
113 29-08-2021 09:20:00 14.6 C 11.76 g/m*3 14.6 C 8.1 km/h
114 29-08-2021 09:25:00 14.6 C 11.76 g/m*3 14.6 C 8.1 km/h
115 29-08-2021 09:30:00 14.6 C 11.76 g/m*3 14.6 C 12.9 km/h
116 29-08-2021 09:35:00 14.6 C 11.76 g/m*3 14.6 C 3.2 km/h
117 29-08-2021 09:40:00 14.6 C 11.76 g/m*3 14.6 C 8.1 km/h
118 29-08-2021 09:45:00 14.6 C 11.76 g/m*3 14.6 C 6.4 km/h
119 29-08-2021 09:50:00 14.7 C 11.83 g/m*3 14.7 C 8.1 km/h
120 29-08-2021 09:55:00 14.7 C 11.83 g/m*3 14.7 C 8.1 km/h
121 29-08-2021 10:00:00 14.8 C 11.91 g/m*3 14.8 C 8.1 km/h
122 29-08-2021 10:05:00 14.8 C 11.91 g/m*3 14.8 C 11.3 km/h
123 29-08-2021 10:10:00 14.8 C 11.91 g/m*3 14.8 C 8.1 km/h
124 29-08-2021 10:15:00 14.8 C 11.78 g/m*3 14.8 C 11.3 km/h
125 29-08-2021 10:20:00 14.8 C 11.78 g/m*3 14.8 C 4.8 km/h
Sensor: Nr:Datum:Temp:Abs-Feuchte:Windchill:Wind:
Aussen-T/F 126 29-08-2021 10:25:00 14.9 C 11.98 g/m*3 14.9 C 8.1 km/h
127 29-08-2021 10:30:00 14.9 C 11.98 g/m*3 14.9 C 4.8 km/h
128 29-08-2021 10:35:00 15 C 11.93 g/m*3 15 C 4.8 km/h
129 29-08-2021 10:40:00 15.1 C 12.13 g/m*3 15.1 C 8.1 km/h
130 29-08-2021 10:45:00 15.2 C 12.2 g/m*3 15.2 C 9.7 km/h
131 29-08-2021 10:50:00 15.2 C 12.07 g/m*3 15.2 C 11.3 km/h
132 29-08-2021 10:55:00 15.2 C 12.07 g/m*3 15.2 C 6.4 km/h
133 29-08-2021 11:00:00 15.3 C 12.14 g/m*3 15.3 C 4.8 km/h
134 29-08-2021 11:05:00 15.4 C 12.22 g/m*3 15.4 C 3.2 km/h
135 29-08-2021 11:10:00 15.4 C 12.22 g/m*3 15.4 C 9.7 km/h
136 29-08-2021 11:15:00 15.4 C 12.22 g/m*3 15.4 C 3.2 km/h
137 29-08-2021 11:20:00 15.5 C 12.29 g/m*3 15.5 C 3.2 km/h
138 29-08-2021 11:25:00 15.5 C 12.16 g/m*3 15.5 C 4.8 km/h
139 29-08-2021 11:30:00 15.6 C 12.23 g/m*3 15.6 C 4.8 km/h
140 29-08-2021 11:35:00 15.6 C 12.23 g/m*3 15.6 C 6.4 km/h
141 29-08-2021 11:40:00 15.7 C 12.31 g/m*3 15.7 C 8.1 km/h
142 29-08-2021 11:45:00 15.7 C 12.31 g/m*3 15.7 C 4.8 km/h
143 29-08-2021 11:50:00 15.7 C 12.31 g/m*3 15.7 C 8.1 km/h
144 29-08-2021 11:55:00 15.7 C 12.31 g/m*3 15.7 C 3.2 km/h
145 29-08-2021 12:00:00 15.8 C 12.38 g/m*3 15.8 C 8.1 km/h
146 29-08-2021 12:05:00 16 C 12.53 g/m*3 16 C 6.4 km/h
147 29-08-2021 12:10:00 16.1 C 12.61 g/m*3 16.1 C 8.1 km/h
148 29-08-2021 12:15:00 16.2 C 12.41 g/m*3 16.2 C 14.5 km/h
149 29-08-2021 12:20:00 16.2 C 12.55 g/m*3 16.2 C 6.4 km/h
150 29-08-2021 12:25:00 16.2 C 12.41 g/m*3 16.2 C 16.1 km/h
Sensor: Nr:Datum:Temp:Abs-Feuchte:Windchill:Wind:
Aussen-T/F 151 29-08-2021 12:30:00 16.2 C 12.41 g/m*3 16.2 C 8.1 km/h
152 29-08-2021 12:35:00 16.2 C 12.55 g/m*3 16.2 C 4.8 km/h
153 29-08-2021 12:40:00 16.2 C 12.55 g/m*3 16.2 C 6.4 km/h
154 29-08-2021 12:45:00 16.1 C 12.61 g/m*3 16.1 C 4.8 km/h
155 29-08-2021 12:50:00 16 C 12.53 g/m*3 16 C 6.4 km/h
156 29-08-2021 12:55:00 16 C 12.53 g/m*3 16 C 3.2 km/h
157 29-08-2021 13:00:00 16 C 12.53 g/m*3 16 C 11.3 km/h
158 29-08-2021 13:05:00 15.9 C 12.46 g/m*3 15.9 C 9.7 km/h
159 29-08-2021 13:10:00 15.8 C 12.38 g/m*3 15.8 C 8.1 km/h
160 29-08-2021 13:15:00 15.8 C 12.38 g/m*3 15.8 C 6.4 km/h
161 29-08-2021 13:20:00 15.8 C 12.52 g/m*3 15.8 C 8.1 km/h
162 29-08-2021 13:25:00 15.7 C 12.31 g/m*3 15.7 C 12.9 km/h
163 29-08-2021 13:30:00 15.7 C 12.44 g/m*3 15.7 C 4.8 km/h
164 29-08-2021 13:35:00 15.7 C 12.44 g/m*3 15.7 C 9.7 km/h
165 29-08-2021 13:40:00 15.6 C 12.37 g/m*3 15.6 C 11.3 km/h
166 29-08-2021 13:45:00 15.6 C 12.37 g/m*3 15.6 C 9.7 km/h
167 29-08-2021 13:50:00 15.5 C 12.29 g/m*3 15.5 C 11.3 km/h
168 29-08-2021 13:55:00 15.5 C 12.29 g/m*3 15.5 C 16.1 km/h
169 29-08-2021 14:00:00 15.5 C 12.29 g/m*3 15.5 C 9.7 km/h
170 29-08-2021 14:05:00 15.5 C 12.29 g/m*3 15.5 C 12.9 km/h
171 29-08-2021 14:10:00 15.6 C 12.37 g/m*3 15.6 C 9.7 km/h
172 29-08-2021 14:15:00 15.6 C 12.37 g/m*3 15.6 C 9.7 km/h
173 29-08-2021 14:20:00 15.7 C 12.58 g/m*3 15.7 C 3.2 km/h
174 29-08-2021 14:25:00 15.7 C 12.44 g/m*3 15.7 C 6.4 km/h
175 29-08-2021 14:30:00 15.6 C 12.37 g/m*3 15.6 C 8.1 km/h
Sensor: Nr:Datum:Temp:Abs-Feuchte:Windchill:Wind:
Aussen-T/F 176 29-08-2021 14:35:00 15.6 C 12.37 g/m*3 15.6 C 9.7 km/h
177 29-08-2021 14:40:00 15.6 C 12.37 g/m*3 15.6 C 1.6 km/h
178 29-08-2021 14:45:00 15.6 C 12.37 g/m*3 15.6 C 4.8 km/h
179 29-08-2021 14:50:00 15.6 C 12.37 g/m*3 15.6 C 8.1 km/h
180 29-08-2021 14:55:00 15.6 C 12.37 g/m*3 15.6 C 1.6 km/h
181 29-08-2021 15:00:00 15.6 C 12.37 g/m*3 15.6 C 6.4 km/h
182 29-08-2021 15:05:00 15.6 C 12.37 g/m*3 15.6 C 9.7 km/h
183 29-08-2021 15:10:00 15.6 C 12.37 g/m*3 15.6 C 8.1 km/h
184 29-08-2021 15:15:00 15.6 C 12.37 g/m*3 15.6 C 8.1 km/h
185 29-08-2021 15:20:00 15.6 C 12.37 g/m*3 15.6 C 8.1 km/h
186 29-08-2021 15:25:00 15.6 C 12.37 g/m*3 15.6 C 8.1 km/h
187 29-08-2021 15:30:00 15.7 C 12.44 g/m*3 15.7 C 6.4 km/h
188 29-08-2021 15:35:00 15.8 C 12.52 g/m*3 15.8 C 11.3 km/h
189 29-08-2021 15:40:00 15.8 C 12.52 g/m*3 15.8 C 8.1 km/h
190 29-08-2021 15:45:00 15.8 C 12.52 g/m*3 15.8 C 14.5 km/h
191 29-08-2021 15:50:00 15.8 C 12.52 g/m*3 15.8 C 11.3 km/h
192 29-08-2021 15:55:00 15.8 C 12.52 g/m*3 15.8 C 11.3 km/h
193 29-08-2021 16:00:00 15.8 C 12.52 g/m*3 15.8 C 8.1 km/h
194 29-08-2021 16:05:00 15.8 C 12.52 g/m*3 15.8 C 4.8 km/h
195 29-08-2021 16:10:00 15.8 C 12.38 g/m*3 15.8 C 9.7 km/h
196 29-08-2021 16:15:00 15.9 C 12.59 g/m*3 15.9 C 9.7 km/h
197 29-08-2021 16:20:00 16 C 12.67 g/m*3 16 C 9.7 km/h
198 29-08-2021 16:25:00 16.1 C 12.75 g/m*3 16.1 C 4.8 km/h
199 29-08-2021 16:30:00 16.1 C 12.75 g/m*3 16.1 C 9.7 km/h
200 29-08-2021 16:35:00 16.2 C 12.69 g/m*3 16.2 C 12.9 km/h
Sensor: Nr:Datum:Temp:Abs-Feuchte:Windchill:Wind:
Aussen-T/F 201 29-08-2021 16:40:00 16.2 C 12.69 g/m*3 16.2 C 11.3 km/h
202 29-08-2021 16:45:00 16.2 C 12.82 g/m*3 16.2 C 6.4 km/h
203 29-08-2021 16:50:00 16.2 C 12.82 g/m*3 16.2 C 6.4 km/h
204 29-08-2021 16:55:00 16.2 C 12.69 g/m*3 16.2 C 8.1 km/h
205 29-08-2021 17:00:00 16.2 C 12.82 g/m*3 16.2 C 1.6 km/h
206 29-08-2021 17:05:00 16.2 C 12.82 g/m*3 16.2 C 1.6 km/h
207 29-08-2021 17:10:00 16.2 C 12.82 g/m*3 16.2 C 6.4 km/h
208 29-08-2021 17:15:00 16.2 C 12.69 g/m*3 16.2 C 3.2 km/h
209 29-08-2021 17:20:00 16.2 C 12.69 g/m*3 16.2 C 6.4 km/h
210 29-08-2021 17:25:00 16.2 C 12.69 g/m*3 16.2 C 11.3 km/h
211 29-08-2021 17:30:00 16.2 C 12.69 g/m*3 16.2 C 9.7 km/h
212 29-08-2021 17:35:00 16.2 C 12.69 g/m*3 16.2 C 6.4 km/h
213 29-08-2021 17:40:00 16.1 C 12.61 g/m*3 16.1 C 3.2 km/h
214 29-08-2021 17:45:00 16.1 C 12.61 g/m*3 16.1 C 11.3 km/h
215 29-08-2021 17:50:00 16.1 C 12.61 g/m*3 16.1 C 4.8 km/h
216 29-08-2021 17:55:00 16.1 C 12.61 g/m*3 16.1 C 1.6 km/h
217 29-08-2021 18:00:00 16.2 C 12.69 g/m*3 16.2 C 9.7 km/h
218 29-08-2021 18:05:00 16.2 C 12.69 g/m*3 16.2 C 4.8 km/h
219 29-08-2021 18:10:00 16.2 C 12.69 g/m*3 16.2 C 3.2 km/h
220 29-08-2021 18:15:00 16.2 C 12.69 g/m*3 16.2 C 8.1 km/h
221 29-08-2021 18:20:00 16.2 C 12.69 g/m*3 16.2 C 9.7 km/h
222 29-08-2021 18:25:00 16.2 C 12.69 g/m*3 16.2 C 8.1 km/h
223 29-08-2021 18:30:00 16.2 C 12.69 g/m*3 16.2 C 3.2 km/h
224 29-08-2021 18:35:00 16.2 C 12.69 g/m*3 16.2 C 6.4 km/h
225 29-08-2021 18:40:00 16.2 C 12.69 g/m*3 16.2 C 4.8 km/h
Sensor: Nr:Datum:Temp:Abs-Feuchte:Windchill:Wind:
Aussen-T/F 226 29-08-2021 18:45:00 16.2 C 12.69 g/m*3 16.2 C 6.4 km/h
227 29-08-2021 18:50:00 16.2 C 12.69 g/m*3 16.2 C 4.8 km/h
228 29-08-2021 18:55:00 16.2 C 12.69 g/m*3 16.2 C 4.8 km/h
229 29-08-2021 19:00:00 16.2 C 12.69 g/m*3 16.2 C 1.6 km/h
230 29-08-2021 19:05:00 16.2 C 12.69 g/m*3 16.2 C 3.2 km/h
231 29-08-2021 19:10:00 16.2 C 12.69 g/m*3 16.2 C 3.2 km/h
232 29-08-2021 19:15:00 16.2 C 12.69 g/m*3 16.2 C 4.8 km/h
233 29-08-2021 19:20:00 16.2 C 12.82 g/m*3 16.2 C 3.2 km/h
234 29-08-2021 19:25:00 16.2 C 12.82 g/m*3 16.2 C 1.6 km/h
235 29-08-2021 19:30:00 16.1 C 12.75 g/m*3 16.1 C 1.6 km/h
236 29-08-2021 19:35:00 16.1 C 12.61 g/m*3 16.1 C 0 km/h
237 29-08-2021 19:40:00 16.1 C 12.75 g/m*3 16.1 C 1.6 km/h
238 29-08-2021 19:45:00 16.1 C 12.75 g/m*3 16.1 C 0 km/h
239 29-08-2021 19:50:00 16.1 C 12.75 g/m*3 16.1 C 4.8 km/h
240 29-08-2021 19:55:00 16.1 C 12.75 g/m*3 16.1 C 0 km/h
241 29-08-2021 20:00:00 16.1 C 12.75 g/m*3 16.1 C 3.2 km/h
242 29-08-2021 20:05:00 16 C 12.67 g/m*3 16 C 0 km/h
243 29-08-2021 20:10:00 16 C 12.67 g/m*3 16 C 6.4 km/h
244 29-08-2021 20:15:00 15.9 C 12.59 g/m*3 15.9 C 3.2 km/h
245 29-08-2021 20:20:00 15.9 C 12.59 g/m*3 15.9 C 4.8 km/h
246 29-08-2021 20:25:00 15.8 C 12.52 g/m*3 15.8 C 3.2 km/h
247 29-08-2021 20:30:00 15.8 C 12.52 g/m*3 15.8 C 6.4 km/h
248 29-08-2021 20:35:00 15.7 C 12.44 g/m*3 15.7 C 4.8 km/h
249 29-08-2021 20:40:00 15.7 C 12.44 g/m*3 15.7 C 3.2 km/h
250 29-08-2021 20:45:00 15.7 C 12.44 g/m*3 15.7 C 4.8 km/h
Sensor: Nr:Datum:Temp:Abs-Feuchte:Windchill:Wind:
Aussen-T/F 251 29-08-2021 20:50:00 15.7 C 12.44 g/m*3 15.7 C 1.6 km/h
252 29-08-2021 20:55:00 15.7 C 12.44 g/m*3 15.7 C 3.2 km/h
253 29-08-2021 21:00:00 15.7 C 12.44 g/m*3 15.7 C 4.8 km/h
254 29-08-2021 21:05:00 15.7 C 12.44 g/m*3 15.7 C 1.6 km/h
255 29-08-2021 21:10:00 15.8 C 12.52 g/m*3 15.8 C 3.2 km/h
256 29-08-2021 21:15:00 15.8 C 12.52 g/m*3 15.8 C 1.6 km/h
257 29-08-2021 21:20:00 15.8 C 12.52 g/m*3 15.8 C 3.2 km/h
258 29-08-2021 21:25:00 15.8 C 12.52 g/m*3 15.8 C 0 km/h
259 29-08-2021 21:30:00 15.8 C 12.52 g/m*3 15.8 C 3.2 km/h
260 29-08-2021 21:35:00 15.8 C 12.52 g/m*3 15.8 C 4.8 km/h
261 29-08-2021 21:40:00 15.8 C 12.52 g/m*3 15.8 C 1.6 km/h
262 29-08-2021 21:45:00 15.8 C 12.52 g/m*3 15.8 C 3.2 km/h
263 29-08-2021 21:50:00 15.8 C 12.52 g/m*3 15.8 C 0 km/h
264 29-08-2021 21:55:00 15.8 C 12.52 g/m*3 15.8 C 0 km/h
265 29-08-2021 22:00:00 15.7 C 12.44 g/m*3 15.7 C 1.6 km/h
266 29-08-2021 22:05:00 15.7 C 12.58 g/m*3 15.7 C 1.6 km/h
267 29-08-2021 22:10:00 15.7 C 12.58 g/m*3 15.7 C 1.6 km/h
268 29-08-2021 22:15:00 15.7 C 12.58 g/m*3 15.7 C 1.6 km/h
269 29-08-2021 22:20:00 15.7 C 12.58 g/m*3 15.7 C 0 km/h
270 29-08-2021 22:25:00 15.7 C 12.58 g/m*3 15.7 C 0 km/h
271 29-08-2021 22:30:00 15.7 C 12.58 g/m*3 15.7 C 0 km/h
272 29-08-2021 22:35:00 15.7 C 12.58 g/m*3 15.7 C 1.6 km/h
273 29-08-2021 22:40:00 15.7 C 12.58 g/m*3 15.7 C 4.8 km/h
274 29-08-2021 22:45:00 15.7 C 12.58 g/m*3 15.7 C 0 km/h
275 29-08-2021 22:50:00 15.7 C 12.58 g/m*3 15.7 C 0 km/h
Sensor: Nr:Datum:Temp:Abs-Feuchte:Windchill:Wind:
Aussen-T/F 276 29-08-2021 22:55:00 15.7 C 12.58 g/m*3 15.7 C 0 km/h
277 29-08-2021 23:00:00 15.7 C 12.58 g/m*3 15.7 C 3.2 km/h
278 29-08-2021 23:05:00 15.7 C 12.71 g/m*3 15.7 C 0 km/h
279 29-08-2021 23:10:00 15.7 C 12.71 g/m*3 15.7 C 0 km/h
280 29-08-2021 23:15:00 15.7 C 12.71 g/m*3 15.7 C 3.2 km/h
281 29-08-2021 23:20:00 15.7 C 12.71 g/m*3 15.7 C 0 km/h
282 29-08-2021 23:25:00 15.7 C 12.71 g/m*3 15.7 C 1.6 km/h
283 29-08-2021 23:30:00 15.7 C 12.71 g/m*3 15.7 C 0 km/h
284 29-08-2021 23:35:00 15.6 C 12.63 g/m*3 15.6 C 0 km/h
285 29-08-2021 23:40:00 15.6 C 12.63 g/m*3 15.6 C 4.8 km/h
286 29-08-2021 23:45:00 15.6 C 12.63 g/m*3 15.6 C 1.6 km/h
287 29-08-2021 23:50:00 15.6 C 12.63 g/m*3 15.6 C 3.2 km/h
288 29-08-2021 23:55:00 15.6 C 12.63 g/m*3 15.6 C 1.6 km/h

Legende:
   Min
   Max


Maximal/Minimal-Werte vom 29.08.2021 - 29.08.2021

Sensor Min Max Avg
Temp
(Aussen-T/F)
14.3 °C
29-08-2021  07:00:00
16.2 °C
29-08-2021  12:15:00
15.33 °C
Abs-Feuchte
(Aussen-T/F)
11.55 g/m*3
29-08-2021  07:00:00
12.82 g/m*3
29-08-2021  16:45:00
12.2 g/m*3
Windchill
(Aussen-T/F)
14.3 C
29-08-2021  07:00:00
16.2 C
29-08-2021  12:15:00
15.27 C

Die Daten stammen von einer Davis Vantage Pro 2 Wetter-Station und werden unter Linux mit der Software wview2wettercgi und aufbereitet. Alle Angaben erfolgen ohne Gewähr für ihre Vollständigkeit oder Richtigkeit.
Kontakt: Rainer Krienke krienke@uni-koblenz.de . Meine Webseiten an der Uni Koblenz oder privat.
Version: $Revision: 0.78 $